GORIZONT 24 [-]

Last updated on Aug. 14, 2020, 5:30 a.m. UTC

1 21759U 91074A   20226.38934705 -.00000036  00000-0  00000+0 0  9995
2 21759  15.2999 359.8117 0015724 213.0031 160.3046  0.98442107104037
UTC
Height (km)
Latitude
Longitude
Inclination
Orbital Period
UTC large
Height (km)
Speed (km/s)
/
Latitude / Longitude
Inclination (degrees)
Orbital Period (minutes)
Azimuth
Elevation
Range (km)
Doppler Factor
iOS Compass Heading
iOS Angle

Next 30 passes for location: Hong Kong

Rise time Rise Azimuth (degrees) Set time Set Azimuth (degrees) Duration Max altitude (degrees)

No matching passes for this satellites